TimeMST,TemperatureF,Dew PointF,Humidity,Sea Level PressureIn,VisibilityMPH,Wind Direction,Wind SpeedMPH,Gust SpeedMPH,PrecipitationIn,Events,Conditions,WindDirDegrees,DateUTC
12:53 AM,37.9,30.0,73,29.98,10.0,Calm,Calm,-,N/A,,Overcast,0,2012-11-25 07:53:00
1:53 AM,36.0,30.9,82,29.97,10.0,SE,3.5,-,N/A,,Overcast,140,2012-11-25 08:53:00
2:53 AM,36.0,30.9,82,29.97,10.0,SSW,3.5,-,N/A,,Overcast,200,2012-11-25 09:53:00
3:53 AM,37.0,30.9,79,29.97,10.0,Calm,Calm,-,N/A,,Overcast,0,2012-11-25 10:53:00
4:53 AM,37.0,33.1,86,29.98,10.0,SSW,4.6,-,0.00,Rain,Light Rain,210,2012-11-25 11:53:00
5:25 AM,37.4,33.8,87,30.00,9.0,SW,6.9,-,0.02,Rain,Light Rain,230,2012-11-25 12:25:00
5:53 AM,37.9,35.1,89,30.01,9.0,SW,9.2,-,0.04,Rain,Light Rain,220,2012-11-25 12:53:00
6:06 AM,37.4,35.6,93,30.01,10.0,SW,13.8,-,0.01,Rain,Light Rain,220,2012-11-25 13:06:00
6:14 AM,37.4,35.6,93,30.01,10.0,SW,12.7,-,0.01,Rain,Light Rain,230,2012-11-25 13:14:00
6:53 AM,37.9,36.0,93,30.01,10.0,WSW,13.8,-,0.02,Rain,Light Rain,240,2012-11-25 13:53:00
7:53 AM,39.0,37.0,93,30.01,10.0,WSW,12.7,-,0.00,Rain,Light Rain,250,2012-11-25 14:53:00
8:04 AM,39.2,37.4,93,30.02,10.0,West,9.2,-,0.00,Rain,Light Rain,270,2012-11-25 15:04:00
8:20 AM,39.2,37.4,93,30.02,10.0,West,13.8,20.7,0.00,Rain,Light Rain,260,2012-11-25 15:20:00
8:48 AM,39.2,37.4,93,30.03,6.0,West,15.0,-,0.00,Rain,Light Rain,260,2012-11-25 15:48:00
8:53 AM,39.9,39.0,97,30.03,7.0,West,15.0,-,0.00,Rain,Light Rain,260,2012-11-25 15:53:00
9:04 AM,39.2,39.2,100,30.03,10.0,West,15.0,23.0,0.00,Rain,Light Rain,260,2012-11-25 16:04:00
9:37 AM,39.2,39.2,100,30.04,6.0,West,15.0,24.2,0.00,Rain,Light Rain,270,2012-11-25 16:37:00
9:53 AM,39.9,39.0,97,30.06,3.0,West,15.0,21.9,0.00,Rain,Light Rain,260,2012-11-25 16:53:00
10:53 AM,39.9,39.0,97,30.07,4.0,West,17.3,-,0.00,Rain,Light Rain,260,2012-11-25 17:53:00
11:41 AM,39.2,37.4,93,30.06,10.0,West,17.3,25.3,0.00,Rain,Light Rain,260,2012-11-25 18:41:00
11:53 AM,39.0,37.0,93,30.07,10.0,West,17.3,24.2,0.00,Rain,Light Rain,260,2012-11-25 18:53:00
12:16 PM,39.2,35.6,87,30.06,10.0,WSW,17.3,25.3,0.00,Rain,Light Rain,250,2012-11-25 19:16:00
12:53 PM,39.9,36.0,86,30.07,10.0,West,17.3,25.3,0.00,Rain,Light Rain,260,2012-11-25 19:53:00
1:19 PM,41.0,35.6,81,30.06,10.0,West,12.7,21.9,0.00,Rain,Light Rain,260,2012-11-25 20:19:00
1:53 PM,41.0,35.1,79,30.08,10.0,West,15.0,23.0,0.00,Rain,Light Rain,260,2012-11-25 20:53:00
2:28 PM,42.8,35.6,76,30.06,10.0,West,15.0,25.3,0.00,Rain,Light Rain,260,2012-11-25 21:28:00
2:53 PM,42.1,33.1,70,30.07,10.0,WSW,13.8,21.9,0.00,Rain,Light Rain,250,2012-11-25 21:53:00
3:53 PM,39.9,30.9,70,30.09,10.0,WSW,16.1,-,0.00,Rain,Light Rain,250,2012-11-25 22:53:00
4:53 PM,39.0,32.0,76,30.10,10.0,WSW,11.5,-,0.00,Rain,Light Rain,240,2012-11-25 23:53:00
5:53 PM,37.9,30.9,76,30.10,10.0,WSW,15.0,24.2,0.00,Rain,Light Rain,250,2012-11-26 00:53:00
6:53 PM,37.0,30.0,76,30.13,10.0,WSW,13.8,23.0,0.00,Rain,Light Rain,250,2012-11-26 01:53:00
7:53 PM,37.0,30.0,76,30.15,10.0,West,9.2,17.3,0.00,,Overcast,260,2012-11-26 02:53:00
8:53 PM,35.1,28.9,78,30.18,10.0,WSW,12.7,-,0.00,Rain,Light Rain,250,2012-11-26 03:53:00
9:53 PM,33.1,27.0,78,30.21,10.0,WSW,6.9,-,0.00,,Mostly Cloudy,250,2012-11-26 04:53:00
10:53 PM,34.0,28.0,79,30.23,10.0,West,5.8,-,N/A,,Overcast,260,2012-11-26 05:53:00
11:53 PM,34.0,28.0,79,30.23,10.0,WSW,5.8,-,N/A,,Overcast,250,2012-11-26 06:53:00